Tracking 25650 objects as of 16-May-2022
HD Live streaming from Space Station
objects crossing your sky now

COSMOS 2251 DEB

Track COSMOS 2251 DEB now!
10-day predictions


NORAD ID: 34337
Int'l Code: 1993-036PK
Perigee: 492.3 km
Apogee: 611.7 km
Inclination: 74.0 °
Period: 95.5 minutes
Semi major axis: 6923 km
RCS: 0.0216 m2 (small)
Launch date: June 16, 1993
Source: Commonwealth of Independent States (former USSR) (CIS)
Launch site: PLESETSK MISSILE AND SPACE COMPLEX (PKMTR)

Note: This is SATELLITE DEBRIS
aabbcc
Your satellite tracking list
Your tracking list is empty




NASA's NSSDC Master Catalog

Two Line Element Set (TLE):
1 34337U 93036PK  22135.90462716  .00019781  00000-0  12065-2 0  9991
2 34337  73.9798  69.6125 0086259 161.0473 199.3963 15.07166511718487
Source of the keplerian elements: AFSPC